Location: ?????????
(55.6553°N, 38.9075°E)
Time: 01:03:31
(UTC+00:00)

Cosmos 292 Rocket - Pass Details

Date: 18 October 2019
Orbit: 673 x 695 km, 74.0° (Epoch: 18 November)

Event Time Altitude Azimuth Distance (km) Brightness Sun altitude
Exits shadow 01:11:03 31° 332° (NNW) 1,195 4.9 -24.3°
Maximum altitude 01:13:22 89° 240° (WSW) 691 3.6 -24.0°
Drops below altitude 10° 01:18:10 10° 154° (SSE) 2,130 6.4 -23.3°
Sets 01:20:29 0° 155° (SSE) 3,045 7.2 -23.0°
